Date String (YYYY-MM-DD hh:mm:ss) UTC,Instrument flags,absolute air pressure of the measurement (hPa),sample flow rate (lpm),inlet stack bypass flow (lpm),air temperature of the measurement (°C),ambient temperature measured by the external sensor (°C),aerosol sample conditioner tube jacket temperature (°C),OPC LED temperature (°C),internal box temperature (°C),relative humidity of the measurement (%),span deviation,mass concentration of particles derived from Lorenz-Mie calculation of OPC scattering (μg/m³),mass concentration of particles derived from Lorenz-Mie calculation of OPC scattering (μg/m³),mass concentration of particles derived from Lorenz-Mie calculation of OPC scattering (μg/m³)
DateTimeUTC,F1_M11,P_M11,Q1_M11,Q2_M11,T1_M11,T2_M11,T3_M11,T4_M11,T5_M11,U1_M11,ZSPAN_M11,X2_M11,X0_M11,X1_M11
2023-05-31 18:00:00,SystemResetWarning,0826.6,5.00,000.00,029.4,028.0,000.0,037.7,031.0,22.8,0000.0,0004.97,0017.58,0003.56
2023-05-31 18:01:00,SystemResetWarning,0826.6,5.00,000.00,029.4,028.0,000.0,037.7,031.1,23.6,0000.0,0004.89,0016.45,0003.56
2023-05-31 18:02:00,SystemResetWarning,0826.6,5.00,000.00,029.5,028.1,000.0,037.7,031.1,24.6,0000.0,0004.88,0017.31,0003.56
2023-05-31 18:03:00,SystemResetWarning,0826.6,5.00,000.00,029.5,028.2,000.0,037.7,031.1,23.0,0000.0,0004.86,0016.58,0003.56
2023-05-31 18:04:00,SystemResetWarning,0826.5,5.00,000.00,029.5,028.2,000.0,037.7,031.1,23.0,0000.0,0004.87,0016.64,0003.55
2023-05-31 18:05:00,SystemResetWarning,0826.6,5.00,000.00,029.5,028.0,000.0,037.7,031.2,23.5,0000.0,0004.96,0015.98,0003.55
2023-05-31 18:06:00,SystemResetWarning,0826.4,4.99,000.00,029.5,026.5,000.0,037.7,030.9,23.9,0000.0,0004.96,0016.02,0003.55
2023-05-31 18:07:00,SystemResetWarning,0826.4,5.00,000.00,029.4,025.3,000.0,037.6,030.7,22.7,0000.0,0005.04,0016.68,0003.57
2023-05-31 18:08:00,SystemResetWarning,0826.4,5.01,000.00,029.3,025.3,000.0,037.5,030.6,22.3,0000.0,0005.01,0016.49,0003.57
2023-05-31 18:09:00,SystemResetWarning,0826.3,5.01,000.00,029.2,025.6,000.0,037.5,030.6,22.4,0000.0,0004.93,0014.87,0003.56
2023-05-31 18:10:00,SystemResetWarning,0826.4,5.00,000.00,029.2,025.9,000.0,037.5,030.6,22.3,0000.0,0004.90,0016.34,0003.55
2023-05-31 18:11:00,SystemResetWarning,0826.4,4.99,000.00,029.2,026.3,000.0,037.5,030.6,22.6,0000.0,0004.88,0016.70,0003.55
2023-05-31 18:12:00,SystemResetWarning,0826.4,5.00,000.00,029.2,026.6,000.0,037.5,030.7,22.3,0000.0,0004.93,0016.51,0003.57
2023-05-31 18:13:00,SystemResetWarning,0826.4,5.00,000.00,029.2,026.9,000.0,037.5,030.7,22.5,0000.0,0004.96,0016.64,0003.57
2023-05-31 18:14:00,SystemResetWarning,0826.3,5.01,000.00,029.2,027.1,000.0,037.5,030.8,22.6,0000.0,0004.98,0018.47,0003.57
2023-05-31 18:15:00,SystemResetWarning,0826.4,5.02,000.00,029.2,027.3,000.0,037.5,030.8,22.6,0000.0,0005.01,0020.08,0003.58
2023-05-31 18:16:00,SystemResetWarning,0826.4,5.01,000.00,029.2,027.5,000.0,037.5,030.8,22.9,0000.0,0004.94,0020.05,0003.57
2023-05-31 18:17:00,SystemResetWarning,0826.4,4.99,000.00,029.2,027.6,000.0,037.5,030.9,24.0,0000.0,0004.90,0019.80,0003.58
2023-05-31 18:18:00,SystemResetWarning,0826.4,4.99,000.00,029.2,027.7,000.0,037.5,030.9,23.2,0000.0,0004.90,0019.16,0003.59
2023-05-31 18:19:00,SystemResetWarning,0826.4,5.00,000.00,029.3,027.8,000.0,037.6,030.9,22.2,0000.0,0004.92,0019.39,0003.59
2023-05-31 18:20:00,SystemResetWarning,0826.3,5.00,000.00,029.3,027.9,000.0,037.6,031.0,21.3,0000.0,0004.89,0020.64,0003.60
2023-05-31 18:21:00,SystemResetWarning,0826.3,5.00,000.00,029.3,028.0,000.0,037.6,031.0,21.5,0000.0,0004.87,0019.02,0003.61
2023-05-31 18:22:00,SystemResetWarning,0826.2,5.01,000.00,029.3,028.1,000.0,037.6,031.0,21.2,0000.0,0004.92,0019.05,0003.61
2023-05-31 18:23:00,SystemResetWarning,0826.2,5.01,000.00,029.4,028.1,000.0,037.6,031.1,21.6,0000.0,0004.95,0019.55,0003.62
2023-05-31 18:24:00,SystemResetWarning,0826.2,5.00,000.00,029.4,028.2,000.0,037.6,031.1,21.9,0000.0,0005.02,0018.89,0003.65
2023-05-31 18:25:00,SystemResetWarning,0826.3,4.98,000.00,029.4,027.7,000.0,037.6,031.1,21.6,0000.0,0005.04,0018.03,0003.67
2023-05-31 18:26:00,SystemResetWarning,0826.2,4.99,000.00,029.4,026.0,000.0,037.6,030.8,20.9,0000.0,0005.02,0016.48,0003.68
2023-05-31 18:27:00,SystemResetWarning,0826.2,5.02,000.00,029.3,025.2,000.0,037.5,030.7,20.7,0000.0,0005.04,0016.23,0003.70
2023-05-31 18:28:00,SystemResetWarning,0826.2,4.99,000.00,029.2,025.3,000.0,037.4,030.6,21.7,0000.0,0005.08,0016.73,0003.71
2023-05-31 18:29:00,SystemResetWarning,0826.2,4.99,000.00,029.2,025.6,000.0,037.4,030.6,21.7,0000.0,0005.08,0017.75,0003.70
2023-05-31 18:30:00,SystemResetWarning,0826.2,5.02,000.00,029.1,026.0,000.0,037.4,030.6,22.6,0000.0,0005.09,0018.03,0003.72
2023-05-31 18:31:00,SystemResetWarning,0826.2,5.00,000.00,029.1,026.3,000.0,037.5,030.6,22.0,0000.0,0005.08,0016.97,0003.72
2023-05-31 18:32:00,SystemResetWarning,0826.2,5.00,000.00,029.1,026.7,000.0,037.5,030.7,21.4,0000.0,0005.08,0017.41,0003.71
2023-05-31 18:33:00,SystemResetWarning,0826.2,5.00,000.00,029.1,026.9,000.0,037.5,030.7,22.4,0000.0,0005.03,0016.94,0003.71
2023-05-31 18:34:00,SystemResetWarning,0826.2,5.00,000.00,029.1,027.1,000.0,037.5,030.8,23.2,0000.0,0005.01,0017.60,0003.70
2023-05-31 18:35:00,SystemResetWarning,0826.2,5.00,000.00,029.1,027.3,000.0,037.5,030.8,23.0,0000.0,0004.99,0018.14,0003.69
2023-05-31 18:36:00,SystemResetWarning,0826.2,5.00,000.00,029.2,027.5,000.0,037.5,030.8,23.2,0000.0,0005.06,0017.84,0003.69
2023-05-31 18:37:00,SystemResetWarning,0826.2,4.99,000.00,029.2,027.6,000.0,037.5,030.9,22.1,0000.0,0005.10,0018.31,0003.69
2023-05-31 18:38:00,SystemResetWarning,0826.2,5.00,000.00,029.2,027.8,000.0,037.5,030.9,21.4,0000.0,0005.13,0018.13,0003.70
2023-05-31 18:39:00,SystemResetWarning,0826.2,5.00,000.00,029.2,027.9,000.0,037.5,030.9,21.5,0000.0,0005.14,0017.39,0003.71
2023-05-31 18:40:00,SystemResetWarning,0826.2,5.00,000.00,029.3,027.9,000.0,037.5,031.0,22.0,0000.0,0005.14,0016.97,0003.72
2023-05-31 18:41:00,SystemResetWarning,0826.2,5.00,000.00,029.3,028.0,000.0,037.5,031.0,22.0,0000.0,0005.16,0016.93,0003.73
2023-05-31 18:42:00,SystemResetWarning,0826.2,5.00,000.00,029.3,028.1,000.0,037.6,031.0,22.0,0000.0,0005.18,0017.85,0003.73
2023-05-31 18:43:00,SystemResetWarning,0826.2,5.01,000.00,029.3,028.1,000.0,037.6,031.1,21.8,0000.0,0005.24,0017.79,0003.75
2023-05-31 18:44:00,SystemResetWarning,0826.2,5.00,000.00,029.4,028.2,000.0,037.6,031.1,21.5,0000.0,0005.32,0018.52,0003.77
2023-05-31 18:45:00,SystemResetWarning,0826.2,4.99,000.00,029.4,027.3,000.0,037.6,031.0,21.8,0000.0,0005.35,0018.10,0003.79
2023-05-31 18:46:00,SystemResetWarning,0826.1,4.99,000.00,029.3,026.2,000.0,037.5,030.8,22.0,0000.0,0005.34,0017.25,0003.80
2023-05-31 18:47:00,SystemResetWarning,0826.0,5.00,000.00,029.3,026.2,000.0,037.5,030.7,21.9,0000.0,0005.32,0016.76,0003.81
2023-05-31 18:48:00,SystemResetWarning,0826.1,5.00,000.00,029.2,026.3,000.0,037.5,030.7,22.1,0000.0,0005.34,0016.14,0003.83
2023-05-31 18:49:00,SystemResetWarning,0826.0,4.99,000.00,029.2,026.6,000.0,037.5,030.8,22.3,0000.0,0005.30,0016.10,0003.83
2023-05-31 18:50:00,SystemResetWarning,0826.0,4.99,000.00,029.2,026.9,000.0,037.5,030.8,22.3,0000.0,0005.29,0016.94,0003.84
2023-05-31 18:51:00,SystemResetWarning,0826.0,5.01,000.00,029.2,027.1,000.0,037.5,030.8,22.5,0000.0,0005.34,0018.82,0003.85
2023-05-31 18:52:00,SystemResetWarning,0826.0,5.00,000.00,029.2,027.3,000.0,037.5,030.9,22.5,0000.0,0005.37,0018.58,0003.86
2023-05-31 18:53:00,SystemResetWarning,0826.0,5.00,000.00,029.2,027.5,000.0,037.5,030.9,23.5,0000.0,0005.43,0018.14,0003.88
2023-05-31 18:54:00,SystemResetWarning,0826.0,4.99,000.00,029.3,027.7,000.0,037.5,030.9,22.4,0000.0,0005.47,0019.21,0003.89
2023-05-31 18:55:00,SystemResetWarning,0826.0,5.00,000.00,029.3,027.8,000.0,037.6,031.0,21.7,0000.0,0005.38,0018.77,0003.87
2023-05-31 18:56:00,SystemResetWarning,0826.0,5.00,000.00,029.3,027.9,000.0,037.6,031.0,21.7,0000.0,0005.35,0018.82,0003.87
2023-05-31 18:57:00,SystemResetWarning,0826.0,5.00,000.00,029.3,028.0,000.0,037.6,031.1,22.2,0000.0,0005.30,0019.09,0003.87
2023-05-31 18:58:00,SystemResetWarning,0826.0,5.00,000.00,029.4,028.0,000.0,037.6,031.1,22.2,0000.0,0005.31,0019.94,0003.85
2023-05-31 18:59:00,SystemResetWarning,0826.0,4.99,000.00,029.4,026.9,000.0,037.6,030.9,22.3,0000.0,0005.31,0020.04,0003.83
